Regional Weather Roundup
Issued by NWS Portland, ME

Current Version | Previous Version | Text Only | Print | Product List | Glossary Off
Versions: 1 2 3 4 5 6 7 8 9 10 11 12 13 14 15 16 17 18 19 20 21 22 23 24 25 26 27 28 29 30 31 32 33 34 35 36 37 38 39 40 41 42 43 44 45 46 47 48 49 50
000 ASUS41 KGYX 212305 RWRGYX WEATHER ROUNDUP FOR MAINE AND NEW HAMPSHIRE NATIONAL WEATHER SERVICE GRAY ME 700 PM EDT TUE MAY 21 2019 MEZ002-005-006-010-012-015-018-020-021-024-026-027-029-220000- MAINE CITY SKY/WX TMP DP RH WIND PRES REMARKS PORTLAND PTSUNNY 57 36 45 NW14 29.81R SANFORD PTSUNNY 58 37 45 NW10G18 29.84R BAR HARBOR FAIR 54 39 57 NW13G23 29.69R WISCASSET MOCLDY 58 36 43 NW8G18 29.77R ROCKLAND CLOUDY 56 39 53 VRB6G17 29.73R FRYEBURG CLOUDY 54 37 52 NW12G17 29.83R LEWISTONAUBURN LGT RAIN 55 38 52 NW23G35 29.80R AUGUSTA MOCLDY 56 37 49 W10G26 29.77R WATERVILLE CLOUDY 55 37 50 NW17G24 29.74R BANGOR MOCLDY 55 38 52 NW15G24 29.70R GREENVILLE N/A 47 36 65 NW24G37 29.70R MILLINOCKET CLOUDY 51 39 63 NW12G23 29.71R HOULTON LGT RAIN 46 40 79 NW10G23 29.66R PRESQUE ISLE CLOUDY 44 39 82 N18 29.71R FRENCHVILLE LGT RAIN 42 37 82 NW14 29.73R CARIBOU LGT RAIN 44 39 82 N16G23 29.71R $$ NHZ002-005-008-009-011-012-014-220000- NEW HAMPSHIRE CITY SKY/WX TMP DP RH WIND PRES REMARKS PORTSMOUTH PTSUNNY 60 33 37 NW17G35 29.82R ROCHESTER PTSUNNY 59 34 39 NW24G38 29.83S NASHUA PTSUNNY 63 34 33 NW20G38 29.89R MANCHESTER PTSUNNY 62 32 32 NW14G26 29.86R CONCORD CLOUDY 60 33 36 NW21G31 29.88R LACONIA PTSUNNY 57 36 45 NW18G28 29.87R PLYMOUTH CLOUDY 56 36 48 NW8G24 29.88R BERLIN CLOUDY 52 35 52 NW17G35 29.85R WHITEFIELD PTSUNNY 50 39 66 NW15G21 29.89R JAFFREY PTSUNNY 59 31 34 NW9G22 29.92R KEENE PTSUNNY 61 33 35 NW14G23 29.91R LEBANON CLOUDY 60 34 37 NW15 29.92R MT WASHINGTON SNOWSHWR 27 27 100 NW71G100 N/A VSB 1/16WCI 4 $$ VTZ005-007-008-220000- VERMONT CITY SKY/WX TMP DP RH WIND PRES REMARKS ST JOHNSBURY N/A 53 39 59 MISG 29.89R MONTPELIER CLOUDY 54 35 48 NW15G31 29.98R BURLINGTON PTSUNNY 60 34 37 NW18G26 29.97R $$ MAZ007-012-024-CTZ003-RIZ002-NYZ038-NYZ072-220000- SOUTHERN NEW ENGLAND AND NY CITY SKY/WX TMP DP RH WIND PRES REMARKS BOSTON PTSUNNY 66 33 29 NW26G32 29.86R WORCESTER FAIR 60 33 36 NW21G30 29.90R NANTUCKET FAIR 60 48 64 W6 29.84R PROVIDENCE PTSUNNY 66 34 30 NW17G32 29.87R HARTFORD FAIR 66 36 32 NW17G26 29.92R ALBANY FAIR 64 33 31 NW18G32 29.98R NEW YORK CITY FAIR 70 33 25 NW21G29 29.94R $$ ANZ081-ANZ082-ANZ150-NHZ014-MEZ023>029-220000- COASTAL MARINE OBSERVATIONS STATION/POSITION TIME TEMP WIND PRES WAVE AIR SEA DIR/SP/G HT/PER (UTC) (F) (DEG/KT/KT) (MB) (FT/S) ISLE OF SHOALS 2200 58 310/ 28/ 31 1008.9S JEFFREYS LEDGE 2238 47 N/A 4/ 5 CASHES LEDGE BUO 2250 53 47 1007.7R 5/ 6 GEORGES BANK BUO 2250 49 45 270/ 17/ 21 1009.2R 5/ 6 $$ .............KEY.............. WCI - WIND CHILL TC - TEMPERATURE IN CELSIUS VSB - VISIBILITY IN MILES HX - HEAT INDEX FAIR- INDICATES FEW OR NO CLOUDS BELOW 12,000 FT, WITH NO SIGNIFICANT WEATHER AND/OR OBSTRUCTIONS TO VISIBILITY.

USA.gov is the U.S. government's official web portal to all federal, state and local government web resources and services.